EB5EEV-5 Weather Reports


time (UTC)temp
C
wind
direction
speed
KPH
gust
KPH
rain 1hr
cm
rain 24hr
cm
rain mn
cm
humidity
%
barometer
mb
20221203045420 -17 0 0.0 0.0 0.00 0.00 0.00 100
20221203044605 -17 0 0.0 0.0 0.00 0.00 0.00 100
20221203043719 -17 0 0.0 0.0 0.00 0.00 0.00 100
20221203042759 -17 0 0.0 0.0 0.00 0.00 0.00 100
20221203041805 -17 0 0.0 0.0 0.00 0.00 0.00 100
20221203040939 -17 0 0.0 0.0 0.00 0.00 0.00 100
20221203040025 -17 0 0.0 0.0 0.00 0.00 0.00 100
20221203035215 -17 0 0.0 0.0 0.00 0.00 0.00 100
20221203034333 -17 0 0.0 0.0 0.00 0.00 0.00 100
20221203033505 -17 0 0.0 0.0 0.00 0.00 0.00 100
20221203032705 -17 0 0.0 0.0 0.00 0.00 0.00 100
20221203031725 -17 0 0.0 0.0 0.00 0.00 0.00 100
20221203030905 -17 0 0.0 0.0 0.00 0.00 0.00 100
20221203025943 -17 0 0.0 0.0 0.00 0.00 0.00 100
20221203025055 -17 0 0.0 0.0 0.00 0.00 0.00 100
20221203024225 -17 0 0.0 0.0 0.00 0.00 0.00 100
20221203023325 -17 0 0.0 0.0 0.00 0.00 0.00 100
20221203022328 -17 0 0.0 0.0 0.00 0.00 0.00 100
20221203021350 -17 0 0.0 0.0 0.00 0.00 0.00 100
20221203020420 -17 0 0.0 0.0 0.00 0.00 0.00 100
20221203015555 -17 0 0.0 0.0 0.00 0.00 0.00 100
20221203014755 -17 0 0.0 0.0 0.00 0.00 0.00 100
20221203013945 -17 0 0.0 0.0 0.00 0.00 0.00 100
20221203013145 -17 0 0.0 0.0 0.00 0.00 0.00 100
20221203012159 -17 0 0.0 0.0 0.00 0.00 0.00 100
20221203011401 -17 0 0.0 0.0 0.00 0.00 0.00 100
20221203010514 -17 0 0.0 0.0 0.00 0.00 0.00 100
20221203005555 -17 0 0.0 0.0 0.00 0.00 0.00 100
20221203004735 -17 0 0.0 0.0 0.00 0.00 0.00 100
20221203003800 -17 0 0.0 0.0 0.00 0.00 0.00 100
20221203001830 -17 0 0.0 0.0 0.00 0.00 0.00 100
20221203000921 -17 0 0.0 0.0 0.00 0.00 0.00 100
20221202235939 -17 0 0.0 0.0 0.00 0.00 0.00 100
20221202235045 -17 0 0.0 0.0 0.00 0.00 0.00 100
20221202234229 12 0 4.8 8.0 0.00 0.00 0.00 7 1008.6
20221202233350 12 0 4.8 8.0 0.00 0.00 0.00 7 1008.6
20221202232514 13 0 3.2 9.7 0.00 0.00 0.00 7 1008.5
20221202231610 -17 0 0.0 0.0 0.00 0.00 0.00 100
20221202230743 13 270 1.6 6.4 0.00 0.00 0.00 7 1008.6
20221202225942 13 270 1.6 6.4 0.00 0.00 0.00 7 1008.9
20221202224955 13 270 3.2 4.8 0.00 0.00 0.00 7 1008.8
20221202223959 13 0 4.8 9.7 0.00 0.00 0.00 7 1009.1
20221202223035 -17 0 0.0 0.0 0.00 0.00 0.00 100
20221202222115 13 135 1.6 4.8 0.00 0.00 0.00 6 1009.1
20221202221308 13 270 4.8 11.3 0.00 0.00 0.00 6 1009.2
20221202220400 13 315 1.6 3.2 0.00 0.00 0.00 6 1009.1
20221202215543 13 90 4.8 12.9 0.00 0.00 0.00 6 1009.1
20221202214655 13 0 4.8 9.7 0.00 0.00 0.00 6 1009.2
20221202213715 13 90 4.8 14.5 0.00 0.00 0.00 6 1009.0
20221202212855 13 45 4.8 16.1 0.00 0.00 0.00 6 1009.3
20221202211925 13 0 4.8 14.5 0.00 0.00 0.00 7 1009.3
20221202211120 13 90 6.4 12.9 0.00 0.00 0.00 7 1009.3
20221202210144 13 45 4.8 8.0 0.00 0.00 0.00 7 1009.2
20221202205245 13 0 9.7 17.7 0.00 0.00 0.00 7 1009.2
20221202204445 13 180 4.8 9.7 0.00 0.00 0.00 7 1009.3
20221202203455 13 45 8.0 11.3 0.00 0.00 0.00 7 1009.2
20221202202620 13 45 3.2 6.4 0.00 0.00 0.00 7 1009.1
20221202201655 13 90 4.8 11.3 0.00 0.00 0.00 7 1009.0
20221202200810 13 180 9.7 24.1 0.00 0.00 0.00 7 1009.3
20221202195925 13 270 8.0 19.3 0.00 0.00 0.00 7 1009.0
20221202195110 13 0 8.0 17.7 0.00 0.00 0.00 7 1009.4
20221202194218 13 0 3.2 9.7 0.00 0.00 0.00 7 1009.2
20221202193336 13 180 6.4 14.5 0.00 0.00 0.00 7 1009.3
20221202192509 13 315 4.8 12.9 0.00 0.00 0.00 7 1009.4
20221202191623 13 180 6.4 19.3 0.00 0.00 0.00 7 1009.4
20221202190630 13 45 6.4 12.9 0.00 0.00 0.00 7 1009.5
20221202185710 13 270 9.7 20.9 0.00 0.00 0.00 7 1009.5
20221202184855 13 0 8.0 14.5 0.00 0.00 0.00 7 1009.5
20221202183910 13 270 6.4 14.5 0.00 0.00 0.00 7 1009.4
20221202182915 13 90 4.8 6.4 0.00 0.00 0.00 7 1009.2
20221202182024 13 0 9.7 19.3 0.00 0.00 0.00 7 1009.6
20221202181115 13 315 8.0 12.9 0.00 0.00 0.00 7 1009.4
20221202180208 13 315 6.4 16.1 0.00 0.00 0.00 7 1009.6
20221202175235 13 270 4.8 12.9 0.00 0.00 0.00 7 1009.4
20221202174435 13 270 9.7 16.1 0.00 0.00 0.00 7 1009.8
20221202173602 13 45 6.4 12.9 0.00 0.00 0.00 7 1009.6
20221202172730 12 180 6.4 17.7 0.00 0.00 0.00 7 1010.0
20221202171740 12 45 9.7 17.7 0.00 0.00 0.00 7 1009.8
20221202170835 12 90 6.4 14.5 0.00 0.00 0.00 7 1009.6
20221202165915 12 45 6.4 17.7 0.00 0.00 0.00 7 1009.6
20221202165025 12 90 9.7 14.5 0.00 0.00 0.00 7 1009.5
20221202164135 12 270 4.8 17.7 0.00 0.00 0.00 7 1009.6
20221202163225 12 225 4.8 9.7 0.00 0.00 0.00 7 1009.4
20221202162250 12 270 4.8 9.7 0.00 0.00 0.00 7 1009.6
20221202161408 12 0 1.6 4.8 0.00 0.00 0.00 7 1009.4
20221202160450 12 45 6.4 14.5 0.03 0.00 0.00 7 1009.3
20221202155500 12 45 4.8 14.5 0.03 0.00 0.00 7 1009.2
20221202154625 12 45 6.4 14.5 0.05 0.00 0.00 7 1009.3
20221202153714 12 0 8.0 17.7 0.05 0.00 0.00 7 1009.5
20221202152715 12 90 4.8 9.7 0.05 0.00 0.00 7 1009.4
20221202151900 12 135 6.4 14.5 0.05 0.00 0.00 7 1009.7
20221202150925 12 270 4.8 11.3 0.03 0.00 0.00 7 1009.6
20221202150038 12 0 11.3 20.9 0.03 0.00 0.00 7 1009.7
20221202145210 12 315 8.0 12.9 0.03 0.00 0.00 7 1009.9
20221202144220 12 0 9.7 19.3 0.00 0.00 0.00 7 1009.7
20221202143245 12 270 12.9 24.1 0.00 0.00 0.00 7 1009.7
20221202142350 12 135 9.7 24.1 0.00 0.00 0.00 7 1009.7
20221202141520 12 315 8.0 14.5 0.03 0.00 0.00 7 1009.6
20221202140704 12 45 6.4 19.3 0.03 0.00 0.00 7 1009.5
20221202135845 12 0 6.4 14.5 0.03 0.00 0.00 8 1009.9
20221202134955 12 180 9.7 19.3 0.03 0.00 0.00 8 1009.9
20221202134125 12 45 3.2 6.4 0.03 0.00 0.00 8 1009.9
20221202133243 12 315 6.4 11.3 0.03 0.00 0.00 8 1010.0
20221202132245 12 270 6.4 16.1 0.03 0.00 0.00 8 1010.3
20221202131320 12 270 6.4 16.1 0.00 0.00 0.00 8 1010.2
20221202130415 12 45 8.0 17.7 0.05 0.00 0.00 7 1010.4
20221202125611 12 90 9.7 24.1 0.05 0.00 0.00 7 1010.4
20221202124627 12 0 9.7 27.4 0.13 0.00 0.00 7 1010.7
20221202123819 12 270 11.3 30.6 0.20 0.00 0.00 7 1010.5
20221202122829 12 90 9.7 22.5 0.20 0.00 0.00 8 1010.6
20221202121843 12 0 9.7 19.3 0.20 0.00 0.00 8 1010.5
20221202120921 12 0 6.4 14.5 0.20 0.00 0.00 8 1010.9
20221202120050 12 90 6.4 14.5 0.13 0.00 0.00 8 1010.9
20221202115934 12 90 6.4 14.5 0.13 0.00 0.00 8 1010.9
20221202115132 12 45 9.7 30.6 0.10 0.00 0.00 8 1011.3
20221202114238 12 0 9.7 17.7 0.03 0.00 0.00 7 1011.3
20221202113258 12 180 11.3 20.9 0.00 0.00 0.00 7 1011.3
20221202112329 -17 0 0.0 0.0 0.00 0.00 0.00 100
20221202111458 -17 0 0.0 0.0 0.00 0.00 0.00 100
20221202110500 -17 0 0.0 0.0 0.00 0.00 0.00 100
20221202105644 -17 0 0.0 0.0 0.00 0.00 0.00 100
20221202104744 13 0 9.7 24.1 0.00 0.00 0.00 7 1012.0
20221202103824 13 0 9.7 24.1 0.00 0.00 0.00 7 1012.3
20221202103022 -17 0 0.0 0.0 0.00 0.00 0.00 100
20221202102158 -17 0 0.0 0.0 0.00 0.00 0.00 100
20221202101224 -17 0 0.0 0.0 0.00 0.00 0.00 100
20221202100249 -17 0 0.0 0.0 0.00 0.00 0.00 100
20221202095309 -17 0 0.0 0.0 0.00 0.00 0.00 100
20221202094314 -17 0 0.0 0.0 0.00 0.00 0.00 100
20221202093509 -17 0 0.0 0.0 0.00 0.00 0.00 100
20221202092658 12 0 8.0 16.1 0.00 0.00 0.00 7 1012.0
20221202071854 13 45 14.5 24.1 0.00 0.00 0.00 6 1011.8
20221202070909 13 45 8.0 12.9 0.00 0.00 0.00 6 1011.6
20221202070049 13 45 6.4 16.1 0.00 0.00 0.00 6 1011.8
20221202065049 13 45 9.7 16.1 0.03 0.00 0.00 6 1011.7
20221202064114 13 0 12.9 20.9 0.03 0.00 0.00 6 1011.7
20221202063145 13 45 11.3 19.3 0.03 0.00 0.00 6 1011.8
20221202062248 13 0 11.3 19.3 0.03 0.00 0.00 6 1011.7
20221202061424 13 90 8.0 12.9 0.03 0.00 0.00 7 1011.8
20221202060559 13 90 3.2 8.0 0.03 0.00 0.00 7 1011.7
20221202055729 12 315 9.7 24.1 0.05 0.00 0.00 6 1011.4
20221202054829 11 135 4.8 14.5 0.03 0.00 0.00 7 1011.7
20221202053854 11 135 3.2 9.7 0.03 0.00 0.00 8 1011.7
20221202053009 11 270 3.2 6.4 0.03 0.00 0.00 8 1011.8
20221202052009 11 0 3.2 4.8 0.03 0.00 0.00 8 1011.8
20221202051144 12 270 4.8 8.0 0.03 0.00 0.00 8 1011.9
20221202050154 12 315 1.6 4.8 0.03 0.00 0.00 7 1011.7